Weather History for Long Prairie, MN

Change the Weather History Date:

Friday, May 10, 2013

  Actual Average (KAXN) Record (KAXN)
Temperature  
Mean Temperature 47 °F -  
Max Temperature 62 °F 66 °F 90 °F (1987)
Min Temperature 32 °F 44 °F 30 °F (1981)
Degree Days  
Heating Degree Days 18    
Moisture  
Dew Point 30 °F    
Average Humidity 55    
Maximum Humidity 87    
Minimum Humidity 22    
Precipitation  
Precipitation 0.00 in - - ()
Sea Level Pressure  
Sea Level Pressure 30.06 in    
Wind  
Wind Speed 7 mph (NNE)    
Max Wind Speed 21 mph    
Max Gust Speed 33 mph    
Visibility 10 miles    
Events      
Averages and records for this station are not official NWS values.
T = Trace of Precipitation, MM = Missing Value Source: NWS Daily Summary

Daily Weather History Graph

Daily Weather History Graph

Search for Another Location

Airport:

Trip Planner

Search our weather history database for the weather conditions in past years. The results will help you decide how hot, cold, wet, or windy it might be!

Date:

Astronomy

May. 10, 2013 Rise Set
Actual Time 5:53 AM CDT 8:39 PM CDT
Civil Twilight 5:19 AM CDT 9:13 PM CDT
Nautical Twilight 4:35 AM CDT 9:57 PM CDT
Astronomical Twilight 3:45 AM CDT 10:48 PM CDT
Moon 6:18 AM CDT (5/10) 9:30 PM CDT (5/10)
Length of Visible Light 15h 54m
Length of Day
14h 45m
New Moon, 0% of the Moon is Illuminated
May 10
New Moon
May 17
First Quarter
May 24
Full
May 31
Last Quarter
Jun 8
New

Hourly Weather History & Observations

Time (CDT) Temp. Windchill Dew Point Humidity Pressure Visibility Wind Dir Wind Speed Gust Speed Precip Events Conditions
12:33 AM 41.0 °F 35.2 °F 32.0 °F 70% 30.18 in 10.0 mi NNE 9.2 mph - N/A   Scattered Clouds
12:53 AM 41.0 °F 34.7 °F 30.2 °F 65% 30.18 in 10.0 mi NE 10.4 mph - N/A   Clear
1:13 AM 39.2 °F 33.0 °F 30.2 °F 70% 30.19 in 10.0 mi NE 9.2 mph - N/A   Clear
1:33 AM 37.4 °F 32.8 °F 32.0 °F 81% 30.18 in 10.0 mi NNE 5.8 mph - N/A   Clear
1:52 AM 37.4 °F 32.8 °F 30.2 °F 75% 30.18 in 10.0 mi NNE 5.8 mph - N/A   Clear
2:13 AM 35.6 °F 30.7 °F 30.2 °F 81% 30.18 in 10.0 mi NNE 5.8 mph - N/A   Clear
2:33 AM 35.6 °F 31.7 °F 28.4 °F 75% 30.18 in 10.0 mi NNE 4.6 mph - N/A   Clear
2:53 AM 35.6 °F 29.9 °F 28.4 °F 75% 30.17 in 10.0 mi NE 6.9 mph - N/A   Clear
3:12 AM 33.8 °F 28.6 °F 28.4 °F 81% 30.17 in 10.0 mi NNE 5.8 mph - N/A   Clear
3:53 AM 33.8 °F 28.6 °F 28.4 °F 81% 30.16 in 10.0 mi North 5.8 mph - N/A   Clear
4:13 AM 33.8 °F 28.6 °F 28.4 °F 81% 30.16 in 10.0 mi North 5.8 mph - N/A   Clear
4:33 AM 33.8 °F 28.6 °F 28.4 °F 81% 30.16 in 10.0 mi North 5.8 mph - N/A   Clear
4:53 AM 33.8 °F 28.6 °F 28.4 °F 81% 30.17 in 10.0 mi North 5.8 mph - N/A   Clear
5:12 AM 32.0 °F 26.4 °F 28.4 °F 87% 30.17 in 10.0 mi North 5.8 mph - N/A   Clear
5:33 AM 32.0 °F 26.4 °F 28.4 °F 87% 30.17 in 10.0 mi North 5.8 mph - N/A   Clear
5:53 AM 32.0 °F 27.5 °F 28.4 °F 87% 30.17 in 10.0 mi NNW 4.6 mph - N/A   Clear
6:13 AM 32.0 °F 27.5 °F 28.4 °F 87% 30.16 in 10.0 mi North 4.6 mph - N/A   Clear
6:33 AM 32.0 °F 27.5 °F 28.4 °F 87% 30.16 in 10.0 mi North 4.6 mph - N/A   Clear
6:53 AM 33.8 °F 30.8 °F 28.4 °F 81% 30.17 in 10.0 mi North 3.5 mph - N/A   Clear
7:13 AM 33.8 °F 29.6 °F 28.4 °F 81% 30.16 in 10.0 mi NNE 4.6 mph - N/A   Clear
7:33 AM 35.6 °F 30.7 °F 28.4 °F 75% 30.16 in 10.0 mi NE 5.8 mph - N/A   Clear
7:52 AM 35.6 °F 29.2 °F 28.4 °F 75% 30.16 in 10.0 mi ENE 8.1 mph - N/A   Clear
8:13 AM 37.4 °F 31.4 °F 28.4 °F 70% 30.16 in 10.0 mi ENE 8.1 mph - N/A   Clear
8:33 AM 37.4 °F 32.1 °F 28.4 °F 70% 30.17 in 10.0 mi ENE 6.9 mph - N/A   Clear
8:52 AM 39.2 °F 35.0 °F 28.4 °F 65% 30.17 in 10.0 mi East 5.8 mph - N/A   Clear
9:12 AM 41.0 °F 36.4 °F 28.4 °F 61% 30.16 in 10.0 mi East 6.9 mph - N/A   Clear
9:33 AM 42.8 °F 41.1 °F 28.4 °F 57% 30.15 in 10.0 mi ENE 3.5 mph - N/A   Clear
9:53 AM 42.8 °F 40.1 °F 28.4 °F 57% 30.14 in 10.0 mi East 4.6 mph - N/A   Clear
10:13 AM 44.6 °F 42.2 °F 30.2 °F 57% 30.14 in 10.0 mi ENE 4.6 mph - N/A   Clear
10:32 AM 44.6 °F - 28.4 °F 53% 30.14 in 10.0 mi Calm Calm - N/A   Clear
10:53 AM 46.4 °F 45.2 °F 30.2 °F 53% 30.12 in 10.0 mi SE 3.5 mph - N/A   Clear
11:13 AM 48.2 °F - 30.2 °F 50% 30.11 in 10.0 mi ESE 4.6 mph - N/A   Clear
11:33 AM 50.0 °F - 28.4 °F 43% 30.10 in 10.0 mi ESE 4.6 mph - N/A   Clear
11:53 AM 50.0 °F - 30.2 °F 47% 30.10 in 10.0 mi Calm Calm - N/A   Clear
12:12 PM 51.8 °F - 26.6 °F 38% 30.10 in 10.0 mi Calm Calm - N/A   Clear
12:33 PM 53.6 °F - 26.6 °F 35% 30.10 in 10.0 mi East 3.5 mph - N/A   Clear
12:53 PM 53.6 °F - 24.8 °F 33% 30.09 in 10.0 mi ENE 3.5 mph - N/A   Clear
1:13 PM 53.6 °F - 24.8 °F 33% 30.07 in 10.0 mi Calm Calm - N/A   Clear
1:33 PM 55.4 °F - 28.4 °F 36% 30.06 in 10.0 mi SE 3.5 mph - N/A   Clear
1:53 PM 57.2 °F - 28.4 °F 33% 30.05 in 10.0 mi South 5.8 mph - N/A   Clear
2:13 PM 59.0 °F - 26.6 °F 29% 30.05 in 10.0 mi SSW 6.9 mph - N/A   Clear
2:33 PM 59.0 °F - 26.6 °F 29% 30.04 in 10.0 mi South 6.9 mph - N/A   Clear
2:53 PM 59.0 °F - 26.6 °F 29% 30.03 in 10.0 mi SW 6.9 mph - N/A   Clear
3:13 PM 60.8 °F - 26.6 °F 27% 30.02 in 10.0 mi SSW 9.2 mph - N/A   Clear
3:33 PM 60.8 °F - 28.4 °F 29% 30.00 in 10.0 mi SSW 8.1 mph - N/A   Clear
3:53 PM 60.8 °F - 28.4 °F 29% 29.99 in 10.0 mi South 8.1 mph - N/A   Clear
4:13 PM 62.6 °F - 28.4 °F 27% 29.98 in 10.0 mi South 9.2 mph 18.4 mph N/A   Clear
4:33 PM 62.6 °F - 26.6 °F 26% 29.98 in 10.0 mi SW 9.2 mph - N/A   Clear
4:53 PM 62.6 °F - 23.0 °F 22% 29.97 in 10.0 mi WSW 10.4 mph 16.1 mph N/A   Scattered Clouds
5:14 PM 62.6 °F - 28.4 °F 27% 29.96 in 10.0 mi SSW 8.1 mph - N/A   Clear
5:33 PM 62.6 °F - 26.6 °F 26% 29.95 in 10.0 mi SW 9.2 mph 19.6 mph N/A   Clear
5:53 PM 62.6 °F - 28.4 °F 27% 29.94 in 10.0 mi SW 9.2 mph - N/A   Clear
6:13 PM 62.6 °F - 28.4 °F 27% 29.92 in 10.0 mi South 8.1 mph - N/A   Scattered Clouds
6:33 PM 60.8 °F - 30.2 °F 31% 29.92 in 10.0 mi South 6.9 mph - N/A   Scattered Clouds
6:53 PM 60.8 °F - 30.2 °F 31% 29.90 in 10.0 mi South 9.2 mph - N/A   Clear
7:13 PM 62.6 °F - 30.2 °F 30% 29.90 in 10.0 mi South 11.5 mph - N/A   Clear
7:33 PM 60.8 °F - 30.2 °F 31% 29.90 in 10.0 mi SSW 10.4 mph - N/A   Scattered Clouds
7:53 PM 60.8 °F - 32.0 °F 34% 29.90 in 10.0 mi South 4.6 mph - N/A   Mostly Cloudy
8:13 PM 60.8 °F - 32.0 °F 34% 29.90 in 10.0 mi West 5.8 mph - N/A   Overcast
8:34 PM 55.4 °F - 37.4 °F 51% 29.89 in 10.0 mi Calm Calm - N/A   Overcast
8:53 PM 55.4 °F - 39.2 °F 54% 29.89 in 10.0 mi SW 3.5 mph - N/A   Overcast
9:13 PM 55.4 °F - 41.0 °F 58% 29.89 in 10.0 mi SW 3.5 mph - N/A   Overcast
9:33 PM 55.4 °F - 41.0 °F 58% 29.90 in 10.0 mi West 10.4 mph 16.1 mph N/A   Overcast
9:54 PM 53.6 °F - 37.4 °F 54% 29.93 in 10.0 mi NW 20.7 mph 32.2 mph N/A   Overcast
10:13 PM 51.8 °F - 37.4 °F 58% 29.95 in 10.0 mi NNW 19.6 mph 33.4 mph N/A   Mostly Cloudy
10:33 PM 51.8 °F - 37.4 °F 58% 29.95 in 10.0 mi NW 20.7 mph 29.9 mph N/A   Scattered Clouds
10:53 PM 50.0 °F - 37.4 °F 62% 29.97 in 10.0 mi NW 17.3 mph 20.7 mph N/A   Scattered Clouds
11:13 PM 48.2 °F - 35.6 °F 62% 29.98 in 10.0 mi NW 16.1 mph 23.0 mph N/A   Scattered Clouds
11:34 PM 46.4 °F 40.4 °F 35.6 °F 66% 30.00 in 10.0 mi NW 13.8 mph 28.8 mph N/A   Clear
11:53 PM 46.4 °F 40.4 °F 35.6 °F 66% 30.01 in 10.0 mi NW 13.8 mph 19.6 mph N/A   Clear